Regional Weather Roundup
Issued by NWS Pendleton, OR

Home | Current Version | Previous Version | Text Only | Print | Product List | Glossary On
Versions: 1 2 3 4 5 6 7 8 9 10 11 12 13 14 15 16 17 18 19 20 21 22 23 24 25 26 27 28 29 30 31 32 33 34 35 36 37 38 39 40 41 42 43 44 45 46 47 48 49 50
165
ASUS46 KPDT 231525
RWRPDT
PENDLETON REGIONAL WEATHER ROUNDUP
NATIONAL WEATHER SERVICE PENDLETON OREGON
800 AM PDT WED MAY 23 2018

NOTE: FAIR INDICATES FEW OR NO CLOUDS BELOW 12,000 FEET WITH NO
SIGNIFICANT WEATHER AND/OR OBSTRUCTIONS TO VISIBILITY.

# INDICATES UNOFFICIAL STATION AND DATA

WAZ520-231610-
EAST SLOPES OF WASHINGTON CASCADES

CITY            SKY/WX      TMP DP  RH  WIND    PRES   REMARKS
#BULLFROG       N/A         56  50  80  W1      N/A
#CLE ELUM HS    N/A         58  48  69  CALM    29.78F
#EASTON DOT     N/A         54  50  86  CALM    N/A
#ELK HTS DOT    N/A         58  58  100 CALM    N/A
#GLENWOOD       N/A         54  52  93  CALM    29.73F
#NELSON 3SW     N/A         59  52  78  CALM    29.92S
#NILE           N/A         57  48  72  CALM    29.17S
#TROUT LAKE 1NE N/A         62  52  70  CALM    29.72S
#TROUT LAKE 1E  N/A         54  53  96  CALM    29.83S
$$

WAZ521-231610-
SIMCOE HIGHLANDS

CITY            SKY/WX      TMP DP  RH  WIND    PRES   REMARKS
#BICKLETON HS   N/A         65  49  56  N5      29.51R
#SATUS PASS DOT N/A         65  43  45  S3      N/A
#CENTERVILLE 1SWN/A         61  53  75  CALM    29.67F
#GOLDENDALE 4W  N/A         66  37  34  CALM    29.82S
#GOODNOE HILLS  N/A         69  56  63  W8      29.68F
#LYLE 6NE       N/A         61  55  81  SE1     29.72F
#PITT 4SE       N/A         61  55  81  W1      29.72S
$$

WAZ026-231610-
KITTITAS VALLEY

CITY            SKY/WX      TMP DP  RH  WIND    PRES   REMARKS
ELLENSBURG AP   SUNNY       61  51  70  E5      29.81S
#ELLENSBURG CWU N/A         57  49  75  CALM    29.68S
#ELLENSBURG 3NE N/A         58  52  80  E1      27.90R
#ELLENSBURG 1E  N/A         57  51  80  CALM    29.81S
#KITTITAS 3S    N/A         58  53  83  CALM    29.74S
#MANASTASH RDG  N/A         63  62  97  NW12    N/A
#ROCKY CYN DOT  N/A         63  51  65  NW8     N/A
#RYEGRASS DOT   N/A         66  47  50  CALM    N/A
#THORP 6N       N/A         79  52  39  CALM    29.62S
$$

WAZ027-231610-
YAKIMA VALLEY

CITY            SKY/WX      TMP DP  RH  WIND    PRES   REMARKS
SUNNYSIDE AP    MOCLDY      62  51  67  CALM    29.75S
YAKIMA AIRPORT  SUNNY       70  49  47  NW6     29.77S
YAKIMA-VAGABOND SUNNY       71  47  42  NE12    29.76S
#DONALD 2NE     N/A         81  19  10  CALM    28.60F
#GRANDVIEW      N/A         66  49  54  CALM    29.73R
#MABTON         N/A         69  56  63  CALM    29.74S
#MOXEE 2E       N/A         37  N/A N/A SW12    29.79S WCI 29
#NACHES 2SW     N/A         66  52  61  W7      29.80S
#OUTLOOK DOT    N/A         67  50  54  CALM    29.71S
#PARKER DOT     N/A         71  48  44  CALM    29.75R
#TERRACE HTS    N/A         64  52  65  CALM    29.67S
#TOPPENISH      N/A         69  52  55  CALM    29.63S
#I82 S UMTANUM RN/A         67  49  52  N6      N/A
#UNION GAP DOT  N/A         69  48  47  NW3     29.79R
#W YAKIMA       N/A         68  51  55  NE3     29.70S
#WHITE SWAN 5E  N/A         64  53  67  CALM    29.72S
#WILEY CITY 3W  N/A         72  47  41  CALM    29.75S
#ZILLAH DOT     N/A         65  51  60  W1      N/A
$$

WAZ028-231610-
LOWER COLUMBIA BASIN...WASHINGTON

CITY            SKY/WX      TMP DP  RH  WIND    PRES   REMARKS
HANFORD         MOSUNNY     73  48  41  NW7     29.74S
PASCO           PTCLDY      67  56  68  N3      29.74S
PROSSER AWOS    N/A         70  54  57  CALM    29.78S
RICHLAND AWOS   PTCLDY      73  55  53  N5      29.74S
#BASIN CITY 5SW N/A         67  57  70  NE5     29.70S
#BENTON CITY    N/A         72  54  53  CALM    29.62S
#CONNELL 5N     N/A         68  56  65  CALM    29.71S
#CONNELL 5NW    N/A         68  56  65  CALM    29.66S
#ELTOPIA 6NW    N/A         66  57  73  CALM    28.73S
#KAHLOTUS       N/A         64  54  70  S9      29.70S
#KENNEWICK 3S   N/A         64  56  75  CALM    29.70S
#PROSSER DOT    N/A         73  51  46  CALM    29.75S
#SAGEMOOR 2W    N/A         67  56  68  NE5     29.57S
#TOUCHET 2S     N/A         63  57  81  CALM    29.70R
#WEST PASCO     N/A         66  57  73  CALM    29.70R
$$

WAZ029-231610-
FOOTHILLS OF THE BLUES...WASHINGTON

CITY            SKY/WX      TMP DP  RH  WIND    PRES   REMARKS
WALLA WALLA AP  PTCLDY      68  55  63  CALM    29.75R
#CLYDE 6NW      N/A         67  56  68  E6      29.67F
#DELANEY DOT    N/A         64  54  70  N1      N/A
#LOWDEN 2SE     N/A         63  58  84  CALM    29.71R
#PLEASANT VIEW 1N/A         64  54  70  N5      29.72S
#PRESCOTT       N/A         64  57  78  CALM    29.69S
#WHITMAN COLLEGEN/A         68  55  63  CALM    29.75R
#WAITSBURG 6SSE N/A         66  56  70  CALM    29.54R
#WAITSBURG 8N   N/A          0  N/A N/A SE5     29.53F
#WALLA WALLA 5E N/A         68  55  63  N1      N/A
#WHITMAN MISSIONN/A         62  59  90  CALM    29.72S
$$

WAZ030-231610-
BLUE MOUNTAINS...WASHINGTON

CITY            SKY/WX      TMP DP  RH  WIND    PRES   REMARKS
#DIXIE 5SE      N/A         63  53  70  SW1     29.74R
$$

ORZ009-041-WAZ024-231610-
COLUMBIA RIVER GORGE

CITY            SKY/WX      TMP DP  RH  WIND    PRES   REMARKS
HOOD RIVER AP   SUNNY       64  54  70  CALM    29.78F
THE DALLES AP   MOSUNNY     67  55  65  NW12    29.74S
#ARLINGTON AIRPON/A         67  55  65  W8      29.72R
#CELILO DOT     N/A         69  54  59  W1      N/A
#LYLE           N/A         64  56  75  N5      29.75S
#MARYHILL       N/A         64  55  73  N5      29.61S
#MURDOCK        N/A         68  57  68  NW12    29.69S
#RUFUS DOT      N/A         65  55  70  NW6     N/A
#SMITHVILLE     N/A         67  57  70  NW12    29.71F

$$

ORZ510-231610-
NORTH CENTRAL OREGON

CITY            SKY/WX      TMP DP  RH  WIND    PRES   REMARKS
#ANTELOPE       N/A         61  50  67  CALM    29.57S
#CHENOWITH 1W   N/A         62  54  75  W21     N/A
#DUFUR          N/A         68  56  65  CALM    29.68F
#DUFUR 9E       N/A         67  52  59  W1      29.73S
#GRASS VALLEY 1SN/A         65  54  68  SW3     29.84R
#KENT DOT       N/A         66  46  48  CALM    N/A
#SHANIKO 5WSW   N/A         63  49  60  S6      N/A
#SHANIKO 4NW    N/A         70  47  44  N1      29.85S
#TYGH VALLEY 2NEN/A         61  53  75  CALM    29.72S
#WAPANITIA AIRPON/A         68  52  57  CALM    29.73S
#WASCO DOT      N/A         64  54  70  SW1     N/A
#WASCO 5NE      N/A         68  56  65  N1      29.70R
$$

ORZ511-231610-
CENTRAL OREGON

CITY            SKY/WX      TMP DP  RH  WIND    PRES   REMARKS
BEND AIRPORT    SUNNY       66  46  48  SW7     29.87S
MADRAS AIRPORT  SUNNY       64  46  52  CALM    29.85S
PRINEVILLE AP   SUNNY       66  48  52  CALM    29.86S
REDMOND AIRPORT SUNNY       65  47  52  CALM    29.85S
#ASHWOOD SCHOOL N/A         60  50  69  CALM    29.80F
#BEND 1SW       N/A         60  49  67  CALM    N/A
#BEND-AWBREY    N/A         60  49  67  SW2     29.69F
#BEND-KIM LN    N/A         64  50  60  CALM    29.65S
#CULVER         N/A         61  50  67  CALM    29.54S
#CULVER 8W      N/A         72  38  29  S3      29.85S
#LAKE BILLY CHINN/A         73  N/A N/A CALM    29.90F
#PRINEVILLE     N/A         62  53  72  CALM    29.79F
#PRINEVILLE 3N  N/A         57  54  90  CALM    29.72F
#WARM SPRINGS   N/A         65  49  56  CALM    29.62S

$$


ORZ509-231610-
EAST SLOPES OF OREGON CASCADES

CITY            SKY/WX      TMP DP  RH  WIND    PRES   REMARKS
SISTERS AWOS    N/A         57  46  67  CALM    29.84S
#CAMP SHERMAN   N/A         46  44  93  CALM    29.83R
#LA PINE 4NW    N/A         54  46  74  CALM    29.78S
#LAVA BUTTE DOT N/A         57  44  62  CALM    N/A
#SISTERS ODOT   N/A         57  46  67  CALM    N/A
#SISTERS 3N     N/A         59  49  69  CALM    29.88S
#SUNRIVER       N/A         62  48  60  CALM    29.71F
#TUMALO 3W      N/A         64  47  54  W1      29.57S
#WANOGA BUTTE D N/A         54  N/A N/A W3      N/A

$$

ORZ044-231610-
LOWER COLUMBIA BASIN...OREGON

CITY            SKY/WX      TMP DP  RH  WIND    PRES   REMARKS
HERMISTON       PTCLDY      73  56  55  N5      29.73S
#BOARDMAN SCHOOLN/A         64  55  73  W1      29.72S
#BOARDMAN 8SW   N/A         68  57  68  W3      29.72R
#ECHO 8SW       N/A         73  55  53  W2      29.75S
#I-84 EX 198 DOTN/A         70  54  57  NE6     N/A
#IONE SCHOOL    N/A         67  48  50  CALM    29.72S
#UMATILLA       N/A         68  53  59  CALM    29.64S
$$

ORZ507-231610-
NORTHERN FOOTHILLS OF THE BLUES

CITY            SKY/WX      TMP DP  RH  WIND    PRES   REMARKS
PENDLETON AIRPT PTCLDY      72  50  46  W9      29.76R
#ADAMS 3WNW     N/A         65  56  73  E1      29.70S
#ATHENA         N/A         66  56  70  CALM    29.72S
#CAYUSE         N/A         69  57  66  E1      29.69S
#HELIX SCHOOL   N/A         64  54  70  SW6     29.70S
#HELIX 3N       N/A         65  54  68  SW7     29.79S
#HOLDMAN 6E     N/A         65  56  73  SW2     29.50S
#M-F GROVE ELEM N/A         68  54  61  SE1     29.73R
#M-FREEWATER 5SEN/A         68  56  65  CALM    29.75S
#PENDLETON DNTN N/A         63  55  75  NE2     N/A
#PDT AQUATIC CTRN/A         66  57  73  CALM    29.75S
#PDT SUNRIDGE   N/A         69  59  70  CALM    29.77S
#PENDLETON 6SE  N/A         70  57  63  SW7     29.66R
#PENDLETON 7NW  N/A         72  58  61  CALM    32.35S
#PILOT ROCK     N/A         72  59  64  CALM    29.79S
#TUTUILLA       N/A         65  58  78  CALM    29.82R
#UMAPINE 2E     N/A         66  57  73  NW2     29.72R

$$

ORZ508-231610-
SOUTHERN FOOTHILLS OF THE BLUES

CITY            SKY/WX      TMP DP  RH  WIND    PRES   REMARKS
#AJAX           N/A         67  46  47  CALM    29.96S
#FOSSIL SCHOOL  N/A         59  52  78  CALM    29.79R
#HEPPNER EOC    N/A         66  54  65  CALM    29.65R
#HEPPNER 4NE    N/A         68  54  61  SE1     29.70R
#LEXINGTON 2SE  N/A         68  55  63  SE1     29.76R
#MIKKALO        N/A         71  48  44  NW2     29.89R
#OLEX 4N        N/A         67  54  63  S3      29.75R
#RUGGS 5NE      N/A         67  54  63  N1      30.01S
#RUGGS 2SW      N/A         65  53  65  SW9     29.72R

$$

ORZ502-503-231610-
BLUE MOUNTAINS

CITY            SKY/WX      TMP DP  RH  WIND    PRES   REMARKS
MEACHAM         PTCLDY      55  50  83  CALM    29.85S
#BATTLE MTN DOT N/A         55  49  80  S3      N/A
#GRANITE        N/A         46  45  96  CALM    29.56S
#GREENHORN 9SW  N/A         56  52  86  CALM    26.10S
#HARDMAN 10S    N/A         55  50  83  CALM    29.82R
#LADD CYN SMT   N/A         57  53  86  SE10    N/A
#LADD CREEK ODOTN/A         55  52  90  SW1     N/A
#N POWDER DOT   N/A         55  53  93  CALM    N/A
#PIKES PEAK     N/A         61  49  65  SW7     27.99S
#SUMMERVILLE 5NWN/A         62  56  81  N1      26.51S
#TOLLGATE       N/A         57  49  75  SW1     29.94S
#TROY SCHOOL    N/A         59  55  87  CALM    29.59F
#UKIAH          N/A         51  49  93  N1      29.70S
$$

ORZ505-231610-
JOHN DAY BASIN

CITY            SKY/WX      TMP DP  RH  WIND    PRES   REMARKS
JOHN DAY        PTCLDY      60  50  69  E6      29.88S
#ANTELOPE 9ESE  N/A         68  51  55  NE2     N/A
#MITCHELL 8NW   N/A         66  52  61  CALM    29.72S
#MONUMENT HS    N/A         58  52  80  E2      29.81R
#MT. VERNON 5SE N/A         61  51  70  E1      29.83S
#SPRAY SCHOOL   N/A         62  N/A N/A W1      N/A
$$

ORZ506-231610-
OCHOCO AND JOHN DAY HIGHLANDS

CITY            SKY/WX      TMP DP  RH  WIND    PRES   REMARKS
#HORSE RIDGE DO N/A         57  43  59  CALM    N/A
#IZEE 6NW       N/A         57  52  83  N5      N/A
#PAULINA ODOT   N/A         59  50  72  E2      N/A
#PINE MTN OBS   N/A         55  45  69  CALM    N/A
#PRAIRIE CITY   N/A         54  53  96  CALM    30.01S
#SENECA         N/A         51  N/A N/A CALM    N/A
#SENECA 9NW     N/A         49  48  96  CALM    29.73F
$$

ORZ049-231610-
GRANDE RONDE VALLEY

CITY            SKY/WX      TMP DP  RH  WIND    PRES   REMARKS
LA GRANDE       PTCLDY      61  53  75  CALM    29.84F
#COVE SCHOOL    N/A         58  54  87  CALM    29.87S
#COVE 6NW       N/A         56  52  86  CALM    29.74S
#ELGIN 3N       N/A         58  55  90  CALM    29.83R
#ELGIN 1E       N/A         53  47  80  CALM    N/A
#IMBLER SCHOOL  N/A         54  51  90  CALM    29.82R
#ISLAND CITY 4N N/A         60  54  81  CALM    29.83R
#LADD CYN DOT   N/A         61  55  81  SW1     N/A
#UNION 1S       N/A         61  54  78  E10     29.72S
$$

ORZ050-231610-
WALLOWA COUNTY

CITY            SKY/WX      TMP DP  RH  WIND    PRES   REMARKS
#ENTERPRISE HS  N/A         55  53  93  CALM    29.60F
#IMNAHA SCHOOL  N/A         61  56  84  CALM    29.83S
#IMNAHA 10S     N/A         58  52  80  SW1     29.84S
#JOSEPH         N/A         59  49  69  NE2     30.07F
#JOSEPH 3N      N/A         55  50  83  CALM    29.91S
#JOSEPH 3W      N/A         58  56  93  CALM    29.74F
#LOSTINE        N/A         56  52  86  CALM    29.53F
#LOSTINE 3SE    N/A         55  51  86  CALM    29.93S
#MT HOWARD 8000 N/A         47  39  74  W2      30.03S
#PROMISE 1S     N/A         54  51  90  CALM    29.79R
#WALLOWA LAKE   N/A         53  51  93  CALM    29.91S
#WALLOWA SCHOOL N/A         55  52  90  CALM    29.83S



$$



USA.gov is the U.S. government's official web portal to all federal, state and local government web resources and services.